DW9435 Weather Reports


time (UTC)temp
C
wind
direction
speed
KPH
gust
KPH
rain 1hr
cm
rain 24hr
cm
rain mn
cm
humidity
%
barometer
mb
20260505111515 11 177 12.9 27.4 0.00 0.00 0.00 60 1001.3
20260505101601 11 22 11.3 19.3 0.00 0.00 0.00 65 1001.1
20260505100001 12 83 8.0 17.7 0.00 0.00 0.00 63 1001.1
20260505094559 12 253 8.0 17.7 0.00 0.00 0.00 60 1001.2
20260505093058 12 9 6.4 9.7 0.00 0.00 0.00 55 1001.3
20260505091620 12 142 4.8 16.1 0.00 0.00 0.00 53 1001.3
20260505090121 12 356 6.4 14.5 0.00 0.00 0.00 53 1001.3
20260505084614 12 72 6.4 19.3 0.00 0.00 0.00 52 1001.4
20260505083108 12 71 4.8 22.5 0.00 0.00 0.00 52 1001.3
20260505081601 12 64 11.3 27.4 0.00 0.00 0.00 54 1001.3
20260505080059 12 105 12.9 27.4 0.00 0.00 0.00 57 1001.0
20260505074549 12 94 14.5 30.6 0.00 0.00 0.00 59 1001.0
20260505073054 12 63 17.7 32.2 0.00 0.00 0.00 62 1001.1
20260505071550 11 62 16.1 32.2 0.00 0.00 0.00 64 1001.1
20260505070051 11 101 9.7 41.8 0.00 0.00 0.00 64 1001.2
20260505064540 12 326 4.8 20.9 0.00 0.00 0.00 61 1001.4
20260505063044 12 326 3.2 12.9 0.00 0.00 0.00 58 1001.5
20260505061536 12 287 17.7 41.8 0.00 0.00 0.00 57 1001.7
20260505060052 12 165 12.9 29.0 0.00 0.00 0.00 60 1001.6
20260505054532 12 205 11.3 32.2 0.00 0.00 0.00 61 1001.4
20260505053032 12 259 9.7 35.4 0.00 0.00 0.00 62 1001.5
20260505051527 12 208 19.3 46.7 0.00 0.00 0.00 62 1001.5
20260505041515 14 344 4.8 19.3 0.00 0.00 0.00 58 1000.4
20260505040019 15 16 11.3 22.5 0.00 0.00 0.00 54 999.8
20260505034512 15 259 22.5 48.3 0.00 0.00 0.00 48 999.6
20260505033010 15 162 30.6 56.3 0.00 0.00 0.00 51 999.6
20260505031506 16 210 19.3 38.6 0.00 0.00 0.00 43 999.3
20260505030005 16 232 9.7 19.3 0.00 0.00 0.00 39 999.1
20260505024504 16 268 6.4 12.9 0.00 0.00 0.00 38 999.1
20260505023004 16 22 1.6 6.4 0.00 0.00 0.00 38 998.9
20260505021503 17 226 9.7 24.1 0.00 0.00 0.00 38 998.8
20260505020002 17 239 16.1 32.2 0.00 0.00 0.00 38 998.7
20260505014503 17 222 9.7 19.3 0.00 0.00 0.00 37 998.6
20260505013001 17 120 8.0 25.7 0.00 0.00 0.00 38 998.8
20260505011601 17 96 12.9 27.4 0.00 0.00 0.00 37 998.8
20260505011500 17 147 16.1 27.4 0.00 0.00 0.00 37 998.8
20260505010104 19 59 0.0 3.2 0.00 0.00 0.00 31 998.7
20260505004600 18 104 0.0 4.8 0.00 0.00 0.00 31 998.7
20260505003104 18 117 0.0 4.8 0.00 0.00 0.00 32 998.7
20260505001558 18 359 0.0 12.9 0.00 0.00 0.00 33 998.9
20260505000058 18 356 9.7 16.1 0.00 0.00 0.00 33 998.9
20260504234555 18 28 8.0 20.9 0.00 0.00 0.00 33 999.1
20260504233058 19 49 8.0 19.3 0.00 0.00 0.00 31 999.0
20260504231553 18 51 4.8 19.3 0.00 0.00 0.00 33 998.9
20260504230051 18 29 4.8 12.9 0.00 0.00 0.00 32 999.0
20260504224551 18 6 8.0 17.7 0.00 0.00 0.00 32 999.1
20260504223104 19 13 6.4 24.1 0.00 0.00 0.00 33 999.1
20260504221551 19 18 14.5 25.7 0.00 0.00 0.00 33 999.1
20260504220047 19 352 8.0 16.1 0.00 0.00 0.00 33 999.2
20260504214547 19 302 3.2 12.9 0.00 0.00 0.00 32 999.3
20260504213046 19 263 8.0 14.5 0.00 0.00 0.00 33 999.4
20260504211622 19 252 8.0 24.1 0.00 0.00 0.00 34 999.2
20260504210049 19 255 8.0 19.3 0.00 0.00 0.00 31 999.4
20260504204544 20 300 3.2 11.3 0.00 0.00 0.00 28 999.2
20260504203044 21 256 9.7 19.3 0.00 0.00 0.00 27 999.3
20260504201542 21 300 3.2 14.5 0.00 0.00 0.00 27 999.3
20260504200041 21 238 11.3 17.7 0.00 0.00 0.00 26 999.4
20260504194547 21 207 8.0 30.6 0.00 0.00 0.00 27 999.5
20260504193037 21 335 4.8 22.5 0.00 0.00 0.00 28 999.7
20260504191537 20 184 16.1 30.6 0.00 0.00 0.00 29 999.9
20260504190036 20 206 17.7 33.8 0.00 0.00 0.00 28 1000.1
20260504184543 21 191 4.8 16.1 0.00 0.00 0.00 29 1000.3
20260504183028 20 333 3.2 17.7 0.00 0.00 0.00 31 1000.5
20260504181530 20 87 9.7 25.7 0.00 0.00 0.00 29 1000.8
20260504180025 20 25 4.8 14.5 0.00 0.00 0.00 30 1001.0
20260504174622 19 246 3.2 20.9 0.00 0.00 0.00 32 1001.2
20260504173018 18 354 6.4 17.7 0.00 0.00 0.00 32 1001.3
20260504171519 19 113 6.4 19.3 0.00 0.00 0.00 31 1001.5